When you browse on this site, cookies collect data to enhance your experience and personalize the content and advertising you see.
Visit our Privacy Policy to learn more. By continuing to use the site, you agree to this use of cookies and data.
  • In Hungary
  • List of Countries
  • For 7 days
  • Water Temperature
  • Satellite Maps
  • Weather Map
  • News
  • Weather Widgets
  • user-avatar
    Login

    Hourly Weather Ax-les-Thermes

    Today, 21 July, Sunday

    Time Temperature Precipitation Wind Pressure Humidity
    00:00 +15°C° 0 mm 1 mps 637 mmHg 89%
    01:00 +15°C° 0 mm 1 mps 637 mmHg 89%
    02:00 +15°C° 0 mm 1 mps 637 mmHg 88%
    03:00 +14°C° 0 mm 1 mps 636 mmHg 87%
    04:00 +15°C° 0 mm 1 mps 637 mmHg 85%
    05:00 +15°C° 0 mm 1 mps 637 mmHg 83%
    06:00 +16°C° 0 mm 1 mps 638 mmHg 82%
    07:00 +20°C° 0 mm 1 mps 638 mmHg 73%
    08:00 +22°C° 0 mm 1 mps 639 mmHg 64%
    09:00 +24°C° 0 mm 1 mps 640 mmHg 55%
    10:00 +25°C° 0.1 mm 1 mps 640 mmHg 54%
    11:00 +26°C° 0.1 mm 2 mps 640 mmHg 53%
    12:00 +26°C° 0.1 mm 2 mps 641 mmHg 51%
    13:00 +26°C° 0.6 mm 2 mps 640 mmHg 54%
    14:00 +26°C° 0.6 mm 2 mps 640 mmHg 56%
    15:00 +26°C° 0.6 mm 2 mps 640 mmHg 58%
    16:00 +25°C° 0.6 mm 1 mps 640 mmHg 64%
    17:00 +24°C° 0.6 mm 1 mps 639 mmHg 69%
    18:00 +21°C° 0.6 mm 0 mps 639 mmHg 75%
    19:00 +20°C° 0.1 mm 0 mps 639 mmHg 79%
    20:00 +18°C° 0.1 mm 0 mps 638 mmHg 84%
    21:00 +18°C° 0.1 mm 1 mps 638 mmHg 89%
    22:00 +18°C° 0.2 mm 1 mps 638 mmHg 88%
    23:00 +16°C° 0.2 mm 1 mps 638 mmHg 87%

    Tomorrow, 22 July, Monday

    Time Temperature Precipitation Wind Pressure Humidity
    00:00 +16°C° 0.2 mm 1 mps 638 mmHg 86%
    01:00 +16°C° 0 mm 1 mps 638 mmHg 84%
    02:00 +16°C° 0 mm 1 mps 638 mmHg 83%
    03:00 +16°C° 0 mm 2 mps 638 mmHg 81%
    04:00 +16°C° 0 mm 2 mps 638 mmHg 80%
    05:00 +17°C° 0 mm 2 mps 638 mmHg 78%
    06:00 +19°C° 0 mm 1 mps 638 mmHg 77%
    07:00 +21°C° 0 mm 1 mps 639 mmHg 66%
    08:00 +24°C° 0 mm 1 mps 640 mmHg 54%
    09:00 +26°C° 0 mm 1 mps 641 mmHg 43%
    10:00 +27°C° 0 mm 1 mps 641 mmHg 42%
    11:00 +29°C° 0 mm 2 mps 642 mmHg 40%
    12:00 +30°C° 0 mm 2 mps 642 mmHg 38%
    13:00 +29°C° 0.2 mm 2 mps 641 mmHg 44%
    14:00 +28°C° 0.2 mm 1 mps 641 mmHg 50%
    15:00 +27°C° 0.2 mm 1 mps 640 mmHg 55%
    16:00 +26°C° 0.1 mm 1 mps 640 mmHg 60%
    17:00 +25°C° 0.1 mm 1 mps 639 mmHg 64%
    18:00 +24°C° 0.1 mm 1 mps 639 mmHg 68%
    19:00 +22°C° 0 mm 1 mps 638 mmHg 68%
    20:00 +20°C° 0 mm 2 mps 638 mmHg 67%
    21:00 +18°C° 0 mm 2 mps 637 mmHg 66%
    22:00 +18°C° 0 mm 2 mps 637 mmHg 61%
    23:00 +18°C° 0 mm 2 mps 637 mmHg 56%

    Day after tomorrow, 23 July, Tuesday

    Time Temperature Precipitation Wind Pressure Humidity
    00:00 +18°C° 0 mm 2 mps 637 mmHg 51%
    01:00 +18°C° 0 mm 2 mps 637 mmHg 49%
    02:00 +18°C° 0 mm 2 mps 637 mmHg 47%
    03:00 +18°C° 0 mm 2 mps 636 mmHg 45%
    04:00 +18°C° 0 mm 2 mps 636 mmHg 47%
    05:00 +18°C° 0 mm 2 mps 636 mmHg 48%
    06:00 +19°C° 0 mm 2 mps 636 mmHg 50%
    07:00 +23°C° 0 mm 2 mps 637 mmHg 44%
    08:00 +25°C° 0 mm 1 mps 638 mmHg 37%
    09:00 +28°C° 0 mm 1 mps 639 mmHg 31%
    10:00 +29°C° 0 mm 1 mps 640 mmHg 29%
    11:00 +30°C° 0 mm 1 mps 640 mmHg 27%
    12:00 +31°C° 0 mm 1 mps 640 mmHg 26%
    13:00 +30°C° 0 mm 2 mps 639 mmHg 29%
    14:00 +30°C° 0 mm 2 mps 639 mmHg 32%
    15:00 +29°C° 0 mm 2 mps 638 mmHg 35%
    16:00 +28°C° 0 mm 2 mps 638 mmHg 42%
    17:00 +26°C° 0 mm 2 mps 637 mmHg 48%
    18:00 +25°C° 0 mm 1 mps 636 mmHg 55%
    19:00 +23°C° 0 mm 2 mps 636 mmHg 55%
    20:00 +21°C° 0 mm 2 mps 636 mmHg 56%
    21:00 +19°C° 0 mm 2 mps 636 mmHg 56%
    22:00 +19°C° 0 mm 2 mps 636 mmHg 54%
    23:00 +18°C° 0 mm 2 mps 635 mmHg 53%

    24 July, Wednesday

    Time Temperature Precipitation Wind Pressure Humidity
    00:00 +18°C° 0 mm 2 mps 635 mmHg 51%
    01:00 +17°C° 0 mm 2 mps 635 mmHg 51%
    02:00 +18°C° 0 mm 1 mps 635 mmHg 50%
    03:00 +18°C° 0 mm 1 mps 634 mmHg 50%
    04:00 +18°C° 0 mm 1 mps 635 mmHg 52%
    05:00 +19°C° 0 mm 1 mps 635 mmHg 54%
    06:00 +19°C° 0 mm 1 mps 635 mmHg 55%
    07:00 +22°C° 0 mm 1 mps 636 mmHg 50%
    08:00 +25°C° 0 mm 1 mps 637 mmHg 44%
    09:00 +27°C° 0 mm 1 mps 638 mmHg 38%
    10:00 +28°C° 0 mm 1 mps 638 mmHg 36%
    11:00 +29°C° 0 mm 2 mps 638 mmHg 35%
    12:00 +29°C° 0 mm 2 mps 638 mmHg 33%
    13:00 +29°C° 0 mm 2 mps 637 mmHg 37%
    14:00 +28°C° 0 mm 2 mps 637 mmHg 40%
    15:00 +27°C° 0 mm 2 mps 636 mmHg 44%
    16:00 +26°C° 0 mm 2 mps 636 mmHg 48%
    17:00 +25°C° 0 mm 2 mps 635 mmHg 52%
    18:00 +25°C° 0 mm 2 mps 635 mmHg 56%
    19:00 +23°C° 0 mm 2 mps 635 mmHg 59%
    20:00 +20°C° 0 mm 2 mps 635 mmHg 61%
    21:00 +18°C° 0 mm 2 mps 634 mmHg 64%
    22:00 +18°C° 0 mm 2 mps 634 mmHg 63%
    23:00 +18°C° 0 mm 2 mps 634 mmHg 61%

    25 July, Thursday

    Time Temperature Precipitation Wind Pressure Humidity
    00:00 +18°C° 0 mm 2 mps 633 mmHg 60%
    01:00 +17°C° 0 mm 2 mps 633 mmHg 58%
    02:00 +17°C° 0 mm 2 mps 633 mmHg 57%
    03:00 +17°C° 0 mm 2 mps 633 mmHg 56%
    04:00 +18°C° 0 mm 2 mps 633 mmHg 55%
    05:00 +18°C° 0 mm 2 mps 633 mmHg 54%
    06:00 +18°C° 0 mm 3 mps 633 mmHg 53%
    07:00 +21°C° 0 mm 2 mps 634 mmHg 47%
    08:00 +25°C° 0 mm 2 mps 635 mmHg 40%
    09:00 +27°C° 0 mm 2 mps 636 mmHg 34%
    10:00 +28°C° 0 mm 2 mps 636 mmHg 32%
    11:00 +29°C° 0 mm 2 mps 636 mmHg 30%
    12:00 +30°C° 0 mm 2 mps 637 mmHg 28%
    13:00 +30°C° 0 mm 2 mps 636 mmHg 30%
    14:00 +29°C° 0 mm 2 mps 636 mmHg 32%
    15:00 +29°C° 0 mm 2 mps 635 mmHg 34%
    16:00 +27°C° 0 mm 2 mps 635 mmHg 42%
    17:00 +26°C° 0 mm 2 mps 634 mmHg 50%
    18:00 +25°C° 0 mm 1 mps 634 mmHg 57%
    19:00 +23°C° 0 mm 1 mps 634 mmHg 60%
    20:00 +21°C° 0 mm 1 mps 634 mmHg 63%
    21:00 +18°C° 0 mm 2 mps 633 mmHg 65%
    22:00 +18°C° 0 mm 1 mps 633 mmHg 70%
    23:00 +16°C° 0 mm 1 mps 633 mmHg 75%

    26 July, Friday

    Time Temperature Precipitation Wind Pressure Humidity
    00:00 +15°C° 0 mm 1 mps 633 mmHg 79%
    01:00 +15°C° 0 mm 1 mps 633 mmHg 82%
    02:00 +14°C° 0 mm 1 mps 633 mmHg 86%
    03:00 +14°C° 0 mm 1 mps 633 mmHg 89%
    04:00 +14°C° 0 mm 1 mps 633 mmHg 88%
    05:00 +14°C° 0 mm 1 mps 633 mmHg 88%
    06:00 +14°C° 0 mm 1 mps 633 mmHg 88%
    07:00 +14°C° 0.1 mm 2 mps 634 mmHg 85%
    08:00 +15°C° 0.1 mm 2 mps 634 mmHg 82%
    09:00 +16°C° 0.1 mm 2 mps 635 mmHg 79%
    10:00 +16°C° 0.8 mm 2 mps 635 mmHg 81%
    11:00 +16°C° 0.8 mm 2 mps 635 mmHg 83%
    12:00 +16°C° 0.8 mm 2 mps 635 mmHg 85%
    13:00 +16°C° 0.7 mm 2 mps 634 mmHg 86%
    14:00 +15°C° 0.7 mm 2 mps 634 mmHg 87%
    15:00 +15°C° 0.7 mm 1 mps 634 mmHg 89%
    16:00 +14°C° 0.6 mm 1 mps 634 mmHg 90%
    17:00 +14°C° 0.6 mm 1 mps 634 mmHg 92%
    18:00 +13°C° 0.6 mm 1 mps 634 mmHg 93%
    19:00 +13°C° 0.2 mm 1 mps 634 mmHg 94%
    20:00 +13°C° 0.2 mm 1 mps 634 mmHg 94%
    21:00 +12°C° 0.2 mm 1 mps 634 mmHg 95%
    22:00 +12°C° 0 mm 1 mps 634 mmHg 95%
    23:00 +12°C° 0 mm 1 mps 634 mmHg 95%
    Show more